ラーセン彗星

P/2004 H2 ( Larsen )

English version
Home page
Updated on July 17, 2004

---------------------------------------------------------------------

・ プロフィール

発見日 2004年4月19日
発見光度 20.4等
発見者 J. A. Larsen (Lunar and Planetary Laboratory)

・ 軌道要素

T 2004 May 10.9281 TT                                   MPC
q   2.617330             (2000.0)            P               Q
n   0.1031437      Peri.  104.5493      -0.5424235      +0.8260812
a   4.503059       Node   131.5541      -0.8277788      -0.4944880
e   0.418766       Incl.   11.7868      -0.1433839      -0.2703173
P   9.56
>From 63 observations 2004 Apr. 19-June 22.

・ 星図

・ 光度変化

        m1 =   13.2 + 5 logΔ +  10.0 log r  [  , 0]  (              〜2004年 5月10日)
        m1 = -191.6 + 5 logΔ + 500   log r  [ 0,50]  (2004年 5月10日〜2004年 6月29日)
        m1 =   15.0 + 5 logΔ +  10.0 log r  [50,  ]  (2004年 6月29日〜              )

        ※ 灰色の曲線は、m1 = 13.2 + 5 logΔ + 10.0 log r の光度曲線です。

---------------------------------------------------------------------

軌道要素はM.P.E.C. 2004-M48に掲載されたものです。
星図は StellaNavigator Ver.2.0 for Windows (アストロアーツ 編著 / アスキー出版局刊) で作成したものです。
光度グラフはComet for Windowsで作成したものです。

---------------------------------------------------------------------

Copyright(C) Seiichi Yoshida (comet@aerith.net). All rights reserved.